Wind_Speed
16 16 16 15 13 10 6 5 11 16 18 20 18 17 18 18 18 15 14 13 11 10 10 9 9 9 10 10 10 9 9 9 10 10 9 10 9 9 9 8 7 5 4 3 2 2 2 1 1
16 17 16 16 14 8 3 8 15 19 21 18 16 16 18 19 19 17 15 13 13 12 12 11 10 11 11 11 10 10 10 11 11 11 11 11 11 10 9 9 8 7 6 5 4 3 3 3 2
16 17 16 16 13 8 6 14 19 21 20 18 17 17 18 20 18 18 17 15 14 13 13 12 12 12 12 12 12 12 12 12 11 12 12 12 12 11 11 10 10 9 8 7 6 5 5 5 4
16 16 16 15 13 9 10 17 20 20 18 17 17 18 19 20 18 17 17 16 15 14 14 13 14 14 14 14 13 13 13 13 13 13 13 13 13 13 13 12 11 10 10 9 8 7 7 7 6
15 15 15 14 12 11 15 22 23 18 16 16 17 20 22 22 20 19 18 16 15 13 14 14 14 15 15 15 14 14 14 14 14 14 14 15 15 15 14 14 13 12 11 11 10 10 9 8 8
14 14 14 11 9 13 19 25 25 20 15 16 18 21 22 19 17 16 16 15 13 13 13 14 14 15 15 15 15 15 15 15 15 15 15 16 16 16 15 15 15 14 13 13 12 12 11 10 10
14 14 12 9 9 15 21 25 23 19 16 16 19 22 23 21 16 15 16 15 14 14 13 13 14 14 15 15 15 15 16 16 16 16 16 17 17 17 17 17 16 16 15 15 14 14 13 12 11
14 15 14 11 12 16 23 25 23 19 18 18 21 23 24 24 18 15 16 16 15 14 13 13 14 15 15 16 16 16 16 17 17 17 17 18 18 18 18 18 18 18 18 18 17 16 15 14 14
14 14 13 10 12 16 21 19 19 20 19 22 23 23 25 20 16 15 16 17 16 15 14 14 14 15 15 15 16 16 17 18 18 18 18 18 19 19 20 20 20 20 19 19 19 19 18 17 16
13 12 9 10 14 16 19 17 17 16 17 20 22 24 23 21 18 17 17 18 17 16 15 14 14 14 15 16 17 17 18 18 19 19 20 20 20 21 21 22 22 22 22 21 21 20 20 19 18
13 14 13 19 22 20 16 15 16 14 16 17 20 24 24 21 19 19 20 20 18 17 16 15 16 16 16 17 18 18 18 19 20 20 21 21 22 23 23 23 23 23 24 23 23 23 22 21 20
15 18 19 21 22 23 17 15 17 16 16 18 20 21 18 19 20 22 22 22 20 18 16 15 15 15 15 16 17 18 18 20 20 21 22 23 23 24 25 25 25 25 25 25 24 24 23 23 22
16 18 20 20 20 20 19 18 16 17 21 22 23 21 18 20 21 23 24 25 21 19 16 15 16 16 17 17 18 19 20 21 21 22 23 24 24 25 25 25 25 26 26 25 24 24 25 24 24
15 16 18 19 19 18 18 18 18 19 19 20 19 19 18 20 22 24 26 23 23 21 17 16 16 16 18 19 19 20 21 21 22 23 23 24 26 26 26 26 27 27 26 26 26 26 25 26 26
15 15 15 15 16 16 16 16 17 18 18 19 19 19 20 22 24 25 25 23 20 19 16 16 17 18 19 20 20 21 22 23 23 24 25 26 27 28 28 28 28 28 27 27 27 28 27 27 27
13 13 13 12 13 15 14 14 17 18 18 19 19 20 21 23 24 24 23 23 21 22 19 18 20 20 21 22 22 23 24 24 24 26 26 27 28 30 30 29 30 29 29 29 29 29 28 28 28
10 10 10 11 12 12 12 14 19 19 17 18 19 20 20 22 23 22 22 21 21 22 22 22 22 23 23 24 24 25 25 26 26 27 28 29 30 30 31 31 32 32 31 30 31 31 30 28 29
7 7 8 12 14 11 12 14 20 19 18 18 18 20 22 21 21 22 21 21 22 23 24 24 24 25 25 25 26 26 27 28 28 29 30 30 31 31 32 32 32 32 31 32 31 32 31 30 29
8 9 12 15 16 12 13 17 20 20 18 18 19 21 21 20 20 21 22 22 23 24 24 25 25 25 26 27 27 28 28 29 30 30 30 31 31 32 32 32 32 32 31 31 30 30 31 31 30
14 14 14 16 16 15 15 18 19 19 20 19 20 20 19 19 19 20 21 22 23 24 25 26 26 27 28 28 29 30 30 30 31 31 31 32 32 32 32 32 32 32 32 31 30 29 30 30 31
16 15 15 16 17 16 16 18 20 19 18 18 19 19 18 18 18 19 21 22 23 25 26 27 28 29 30 30 31 31 31 31 31 31 32 32 32 32 32 32 31 31 31 31 31 31 31 31 32
15 15 16 14 15 15 14 18 20 21 19 17 18 19 18 18 19 20 21 22 24 25 26 27 28 29 30 31 32 32 32 32 32 32 32 31 32 32 32 31 32 31 31 30 30 31 32 32 33
14 13 14 16 17 17 16 17 21 22 21 20 18 17 17 19 20 21 22 24 25 26 26 27 28 29 30 31 31 31 32 31 31 31 31 31 32 31 31 32 31 31 30 30 31 32 32 32 32
13 12 13 15 17 19 18 19 22 23 20 19 14 15 17 18 19 21 22 23 24 25 25 26 28 29 29 30 31 31 31 31 31 31 31 31 30 29 30 30 31 31 30 30 30 31 31 32 32
13 13 14 15 17 20 20 21 24 24 21 18 16 17 17 19 21 21 22 23 24 24 25 26 27 28 28 28 29 29 29 29 29 30 31 30 30 29 28 29 29 29 30 29 30 30 31 30 31
14 13 14 15 15 16 15 19 23 20 17 17 17 18 18 19 21 22 22 23 24 25 25 26 26 27 27 27 28 28 28 28 28 29 30 29 29 28 28 28 28 28 28 28 28 28 29 29 29
12 13 14 13 13 16 15 16 18 16 16 18 18 19 20 21 21 22 23 24 25 25 26 26 26 26 26 26 26 26 26 26 27 28 28 28 28 28 28 27 27 27 27 27 27 28 27 27 27
13 12 13 14 14 15 15 18 17 14 15 18 19 19 20 21 22 22 23 24 24 25 26 26 26 26 26 26 25 26 26 26 26 26 26 26 26 26 27 27 27 27 27 26 26 27 27 27 27
13 14 14 14 15 16 17 17 17 18 17 17 19 20 21 22 22 23 23 24 25 26 26 26 26 25 25 25 24 24 25 25 25 25 25 25 26 25 26 25 26 26 26 26 25 25 26 26 26
15 14 15 15 16 18 20 20 18 20 18 19 20 21 21 22 23 23 24 24 25 25 26 26 25 24 24 24 23 23 23 24 24 25 25 25 25 25 25 25 25 25 25 25 25 25 25 24 24
Wind_Direction
254 253 251 247 241 234 225 194 235 245 244 242 240 234 231 233 236 234 232 234 239 241 240 237 229 221 218 215 215 225 230 232 232 237 242 243 244 246 246 248 255 257 257 262 272 286 294 303 326
252 251 249 246 239 225 251 230 232 242 245 247 242 236 234 237 238 236 237 238 240 242 241 241 238 231 227 225 221 229 233 236 237 239 243 244 245 251 252 252 255 259 261 263 269 276 279 281 284
252 249 247 243 233 201 219 233 232 239 250 251 245 238 236 242 240 237 238 243 242 242 242 241 238 236 234 232 230 233 235 238 241 243 245 246 249 254 256 256 257 260 263 262 267 273 274 272 271
251 248 245 241 227 198 218 241 232 239 250 252 245 240 240 238 241 241 243 245 244 242 244 243 241 240 237 235 234 236 239 242 246 249 250 252 254 256 258 259 260 263 265 265 267 270 271 269 266
250 246 243 238 227 206 226 240 240 240 251 251 242 240 243 235 235 241 245 246 244 245 247 246 246 245 243 240 239 240 243 246 249 253 256 257 258 260 262 265 265 265 267 267 268 268 267 264 263
247 243 239 235 235 223 230 242 246 244 247 248 240 240 245 235 225 234 244 246 247 248 249 249 250 248 247 245 244 246 248 250 252 255 259 261 261 262 265 267 267 267 268 268 268 268 267 264 264
244 236 231 223 233 237 238 245 246 246 240 240 241 240 244 247 236 235 244 250 252 256 252 253 253 251 250 248 248 249 252 254 255 257 261 262 262 263 266 266 266 268 268 269 270 269 268 267 267
241 236 223 214 223 239 247 250 250 236 229 230 236 242 244 243 240 239 250 253 257 258 256 258 258 254 252 252 252 253 255 256 256 258 261 262 262 263 266 267 267 268 269 269 270 270 268 268 269
240 233 224 211 224 235 249 251 250 241 231 234 239 241 242 244 234 240 249 254 256 257 257 260 259 256 254 255 257 257 258 258 258 259 260 261 263 265 268 269 269 269 268 268 267 268 268 268 268
232 222 210 212 218 226 243 246 245 245 238 242 241 243 247 249 249 244 248 253 254 256 258 261 261 263 261 260 262 261 261 260 261 261 262 263 265 267 268 269 269 267 267 267 266 266 266 266 266
223 211 204 221 219 217 231 242 239 238 236 237 242 246 248 247 247 248 251 251 251 253 257 260 264 265 264 264 265 265 264 264 263 263 265 266 267 268 268 269 270 268 266 266 265 263 263 263 263
222 215 217 227 231 228 222 234 238 230 231 236 244 249 246 250 257 262 260 260 254 246 251 263 271 274 271 270 270 266 267 267 268 268 268 268 269 269 269 270 270 269 267 266 263 262 261 261 262
231 227 230 233 237 233 223 230 237 235 235 239 245 246 249 251 258 259 257 260 253 253 262 269 275 275 277 277 275 275 272 270 270 272 272 270 271 272 273 273 271 269 268 265 263 262 261 261 261
234 233 239 238 240 238 230 232 236 235 242 244 244 251 253 251 250 255 255 255 259 262 265 272 277 278 278 278 278 276 275 274 273 273 273 273 272 273 273 273 272 269 268 266 264 264 263 264 264
230 234 240 239 239 240 235 230 238 243 243 247 249 248 248 250 251 255 257 266 268 275 276 281 281 283 282 279 279 278 277 275 275 274 274 272 272 272 272 271 270 269 267 265 265 266 264 264 262
230 234 236 242 238 237 232 230 239 242 244 248 249 249 250 253 254 259 265 269 278 281 280 283 285 284 282 281 281 280 278 277 278 275 275 273 273 272 271 270 270 268 269 268 267 266 263 262 262
227 232 227 233 240 230 229 223 241 246 245 250 252 253 254 254 254 263 265 270 276 279 284 286 283 282 282 281 280 279 278 276 276 276 275 276 275 275 274 273 271 270 270 269 268 267 262 261 262
229 234 223 223 243 234 225 225 242 244 250 251 252 254 255 259 262 266 271 274 276 278 280 280 280 280 280 280 280 279 279 277 276 276 276 276 277 275 276 276 274 271 268 268 268 265 261 262 262
213 220 220 222 240 237 227 231 242 252 253 254 255 256 258 262 267 269 271 273 275 276 277 278 280 280 279 280 280 279 279 279 277 276 276 276 277 278 279 278 277 273 271 270 264 263 261 261 261
202 206 214 218 227 233 227 235 242 247 252 253 255 258 259 262 266 269 271 273 275 277 278 279 280 280 281 282 283 282 280 279 278 276 275 275 277 279 278 277 276 273 271 269 263 263 263 261 261
202 198 208 223 233 232 232 237 247 250 250 251 256 261 264 264 266 269 272 275 277 278 278 279 280 281 282 283 283 281 280 279 277 275 276 276 277 278 278 275 274 273 270 268 267 266 263 262 263
209 207 207 220 235 239 236 240 248 253 251 250 256 262 265 267 270 272 275 277 278 279 279 279 280 282 282 282 281 280 279 278 277 276 275 276 276 277 277 277 276 276 272 269 268 266 263 263 262
214 211 213 218 228 234 235 242 251 256 256 252 251 258 267 270 274 276 277 278 280 280 279 279 281 282 281 280 280 279 278 277 276 275 275 275 276 276 277 278 277 275 273 272 269 267 265 265 263
209 211 221 226 233 240 239 246 257 265 268 263 253 266 273 274 277 278 279 279 281 281 279 280 281 282 281 280 279 278 277 276 276 276 276 277 276 276 277 279 278 276 274 273 271 269 269 267 264
209 214 226 234 237 239 236 243 258 263 264 269 271 278 281 280 278 279 279 280 281 281 280 281 282 282 280 281 279 278 278 277 277 276 277 278 278 277 277 278 278 277 274 274 273 272 271 270 267
213 217 234 248 250 252 243 243 253 260 269 277 279 286 286 283 281 281 281 282 282 282 282 284 284 283 281 281 280 278 277 277 277 277 278 279 278 278 277 278 277 277 275 275 274 274 272 271 269
219 223 237 257 258 260 253 253 253 261 271 279 283 288 289 287 285 285 285 284 285 285 285 285 285 284 283 282 281 279 277 277 278 279 278 278 278 278 277 279 278 276 276 276 275 274 273 272 269
223 230 239 252 262 273 266 258 255 262 277 283 288 287 287 287 285 286 288 288 288 288 288 287 286 284 283 282 279 278 278 277 278 279 279 277 277 277 276 277 276 276 274 275 275 274 272 271 270
230 230 239 248 254 270 278 266 269 270 275 285 290 290 289 289 288 289 289 290 290 290 290 289 288 286 283 281 280 279 277 276 276 277 277 278 278 278 277 277 276 275 275 274 273 273 271 271 269
227 232 235 243 248 258 272 279 277 281 279 285 289 291 292 292 291 290 290 290 291 291 290 290 289 287 285 284 282 280 279 278 277 277 277 277 278 279 279 278 276 275 274 272 271 272 271 271 269
Height
5873 5874 5875 5878 5881 5883 5885 5889 5891 5889 5888 5888 5889 5889 5889 5889 5890 5892 5889 5889 5890 5890 5891 5892 5893 5894 5895 5895 5896 5897 5898 5899 5900 5901 5901 5902 5902 5902 5902 5902 5902 5902 5902 5901 5901 5900 5900 5900 5900
5870 5871 5873 5875 5878 5880 5885 5888 5888 5886 5885 5886 5887 5888 5887 5887 5887 5887 5887 5888 5889 5889 5890 5891 5892 5893 5894 5894 5895 5896 5897 5898 5898 5899 5900 5901 5901 5902 5902 5902 5902 5902 5901 5901 5901 5900 5900 5900 5900
5866 5868 5870 5873 5875 5878 5885 5885 5884 5881 5882 5884 5885 5886 5884 5884 5883 5884 5885 5887 5888 5888 5889 5890 5891 5892 5892 5893 5894 5895 5895 5896 5897 5898 5899 5900 5900 5901 5901 5901 5901 5901 5900 5900 5900 5900 5900 5900 5899
5863 5865 5868 5871 5874 5877 5881 5880 5878 5879 5881 5882 5882 5883 5882 5882 5881 5882 5883 5884 5886 5887 5887 5888 5889 5890 5891 5892 5893 5893 5894 5895 5896 5896 5897 5898 5899 5899 5900 5900 5900 5899 5899 5899 5899 5899 5899 5899 5899
5860 5863 5865 5868 5871 5875 5879 5876 5874 5877 5878 5879 5879 5879 5879 5877 5878 5880 5881 5882 5883 5884 5885 5886 5887 5888 5889 5890 5891 5892 5893 5893 5894 5895 5896 5896 5897 5897 5898 5898 5898 5898 5898 5898 5898 5898 5898 5898 5898
5858 5860 5862 5865 5869 5873 5874 5871 5872 5875 5878 5877 5876 5875 5875 5869 5872 5876 5879 5880 5881 5881 5883 5884 5885 5886 5887 5888 5889 5890 5891 5891 5892 5893 5893 5894 5895 5895 5896 5896 5896 5896 5896 5897 5897 5897 5897 5897 5897
5855 5857 5859 5863 5870 5871 5871 5867 5869 5872 5875 5875 5873 5871 5872 5869 5869 5873 5877 5878 5879 5880 5881 5882 5883 5884 5885 5885 5886 5887 5888 5889 5890 5890 5891 5892 5892 5893 5893 5894 5894 5894 5894 5895 5895 5895 5895 5895 5895
5851 5854 5856 5861 5867 5869 5865 5864 5865 5868 5870 5871 5870 5869 5869 5869 5868 5872 5874 5875 5875 5877 5878 5879 5880 5881 5882 5883 5884 5884 5885 5886 5887 5888 5888 5889 5889 5890 5890 5891 5891 5891 5892 5892 5892 5892 5893 5893 5893
5847 5851 5853 5859 5864 5865 5861 5861 5862 5862 5865 5866 5866 5866 5865 5866 5865 5869 5870 5872 5872 5873 5874 5876 5877 5878 5879 5880 5881 5881 5882 5883 5884 5884 5885 5885 5886 5887 5887 5887 5888 5888 5888 5889 5889 5889 5890 5891 5891
5845 5848 5852 5857 5860 5861 5859 5858 5859 5859 5861 5861 5860 5860 5860 5863 5865 5866 5867 5868 5868 5868 5870 5872 5873 5874 5876 5877 5877 5878 5879 5879 5880 5881 5882 5882 5883 5883 5884 5884 5884 5884 5885 5885 5886 5886 5887 5887 5888
5842 5845 5848 5851 5852 5853 5855 5855 5856 5856 5857 5858 5855 5856 5858 5860 5860 5863 5864 5864 5862 5864 5866 5868 5869 5870 5872 5873 5873 5874 5875 5876 5876 5877 5878 5878 5879 5879 5880 5880 5879 5879 5880 5881 5882 5882 5882 5883 5884
5839 5840 5842 5844 5846 5848 5851 5852 5852 5853 5854 5853 5852 5851 5853 5856 5857 5859 5860 5860 5859 5858 5861 5861 5864 5865 5867 5868 5868 5868 5871 5872 5873 5873 5874 5874 5875 5875 5875 5875 5875 5874 5874 5875 5876 5877 5877 5879 5880
5835 5837 5838 5839 5841 5844 5846 5848 5849 5850 5850 5850 5851 5851 5851 5854 5855 5854 5855 5854 5852 5851 5855 5858 5860 5862 5862 5863 5864 5864 5867 5868 5868 5869 5870 5870 5870 5870 5870 5870 5870 5869 5869 5869 5870 5872 5873 5874 5875
5832 5833 5835 5836 5838 5840 5842 5844 5845 5846 5846 5847 5848 5849 5850 5849 5849 5847 5847 5845 5846 5847 5850 5853 5856 5857 5859 5860 5861 5862 5863 5863 5864 5864 5865 5865 5865 5864 5864 5864 5865 5864 5864 5865 5866 5866 5867 5869 5870
5828 5830 5832 5833 5835 5837 5839 5841 5842 5843 5845 5845 5845 5846 5847 5846 5845 5843 5841 5842 5845 5845 5845 5851 5853 5853 5854 5856 5857 5857 5858 5859 5859 5859 5859 5859 5859 5859 5859 5859 5860 5859 5858 5859 5860 5861 5862 5863 5865
5826 5828 5830 5832 5833 5835 5838 5839 5840 5840 5841 5841 5842 5842 5843 5843 5842 5840 5840 5841 5843 5843 5843 5846 5849 5849 5850 5851 5852 5853 5853 5853 5854 5854 5854 5853 5853 5852 5853 5853 5854 5853 5853 5853 5854 5855 5856 5857 5859
5824 5826 5828 5831 5831 5833 5835 5837 5836 5836 5837 5837 5838 5839 5840 5839 5838 5837 5839 5840 5842 5842 5841 5843 5845 5846 5846 5847 5848 5848 5848 5849 5849 5849 5849 5848 5847 5847 5847 5846 5847 5846 5847 5847 5848 5849 5850 5851 5852
5824 5826 5829 5831 5830 5832 5834 5834 5833 5832 5834 5834 5834 5835 5836 5836 5836 5837 5837 5837 5839 5840 5840 5841 5841 5841 5842 5842 5843 5842 5843 5843 5843 5843 5843 5842 5842 5841 5841 5840 5839 5839 5840 5841 5841 5842 5842 5844 5845
5823 5826 5829 5830 5829 5831 5832 5832 5832 5832 5832 5831 5830 5830 5832 5833 5834 5834 5835 5836 5836 5836 5837 5836 5836 5837 5837 5837 5837 5837 5837 5837 5837 5836 5836 5836 5835 5835 5834 5834 5833 5833 5833 5834 5835 5836 5837 5837 5838
5819 5823 5827 5828 5827 5829 5830 5829 5829 5828 5828 5829 5827 5827 5829 5831 5831 5831 5832 5832 5832 5832 5832 5831 5831 5831 5831 5831 5830 5830 5830 5830 5830 5829 5829 5829 5829 5829 5828 5828 5826 5826 5827 5827 5828 5829 5830 5831 5832
5817 5821 5824 5825 5824 5826 5827 5827 5826 5825 5825 5825 5825 5825 5826 5827 5827 5828 5828 5828 5827 5827 5826 5826 5826 5826 5825 5825 5824 5824 5824 5824 5823 5823 5823 5823 5822 5822 5821 5821 5820 5819 5820 5821 5822 5822 5823 5824 5825
5814 5817 5819 5822 5822 5823 5824 5824 5822 5820 5821 5821 5821 5822 5823 5823 5823 5823 5824 5823 5823 5822 5822 5821 5821 5820 5820 5819 5818 5818 5817 5817 5817 5816 5816 5816 5816 5815 5814 5814 5814 5814 5814 5814 5815 5815 5815 5817 5818
5812 5814 5817 5818 5819 5820 5820 5819 5818 5815 5815 5816 5817 5818 5819 5820 5819 5819 5819 5819 5818 5818 5817 5816 5816 5815 5814 5813 5812 5811 5811 5810 5810 5809 5809 5809 5809 5809 5808 5807 5807 5807 5807 5807 5807 5808 5808 5809 5810
5810 5812 5814 5815 5816 5816 5816 5815 5814 5811 5811 5811 5811 5814 5815 5816 5815 5815 5814 5814 5813 5813 5812 5811 5810 5809 5808 5807 5806 5805 5804 5804 5803 5802 5802 5802 5802 5802 5802 5801 5800 5800 5800 5800 5801 5801 5801 5802 5803
5808 5811 5812 5812 5812 5812 5812 5812 5809 5806 5808 5809 5809 5809 5811 5811 5811 5810 5810 5809 5808 5808 5807 5806 5805 5803 5802 5801 5800 5799 5798 5797 5797 5796 5796 5796 5796 5795 5795 5795 5794 5793 5793 5794 5794 5794 5795 5795 5796
5805 5808 5809 5809 5809 5808 5807 5807 5805 5801 5802 5804 5805 5806 5806 5806 5807 5806 5805 5804 5803 5802 5801 5800 5799 5797 5796 5795 5793 5792 5792 5791 5790 5790 5789 5789 5789 5789 5788 5788 5788 5787 5787 5787 5788 5788 5788 5789 5789
5803 5805 5806 5806 5805 5804 5803 5803 5799 5797 5800 5801 5801 5802 5802 5802 5802 5801 5800 5799 5798 5797 5795 5794 5792 5791 5789 5788 5787 5786 5785 5785 5784 5783 5783 5782 5782 5782 5782 5781 5781 5781 5781 5782 5782 5782 5782 5782 5782
5802 5802 5804 5804 5803 5801 5800 5797 5795 5794 5797 5799 5799 5798 5798 5798 5797 5796 5794 5793 5792 5791 5789 5788 5786 5785 5783 5782 5781 5780 5779 5778 5778 5777 5777 5776 5776 5775 5775 5775 5775 5775 5775 5775 5775 5775 5775 5776 5776
5799 5801 5800 5801 5801 5800 5798 5797 5793 5793 5793 5794 5795 5795 5794 5793 5792 5790 5789 5788 5786 5785 5783 5781 5780 5778 5777 5776 5775 5774 5773 5772 5772 5771 5771 5770 5770 5769 5769 5769 5768 5769 5769 5769 5769 5769 5769 5770 5770
5795 5797 5798 5799 5799 5798 5796 5796 5792 5790 5788 5790 5790 5790 5789 5787 5786 5785 5783 5782 5780 5778 5777 5775 5773 5772 5771 5770 5769 5768 5766 5766 5765 5765 5764 5764 5764 5763 5763 5763 5762 5762 5762 5763 5763 5763 5764 5764 5764